CW6633 Weather Reports


Display with metric or nautical units.
time (UTC)temp
F
wind
direction
speed
MPH
gust
MPH
rain 1hr
in
rain 24hr
in
rain mn
in
humidity
%
barometer
mb
20240303180017 46 180 1.0 4.0 0.00 0.00 0.00 30 1001.8
20240303175017 47 0.0 2.0 0.00 0.00 0.00 28 1002.1
20240303174038 47 203 2.0 6.0 0.00 0.00 0.00 31 1002.2
20240303173037 47 203 1.0 5.0 0.00 0.00 0.00 28 1002.1
20240303172017 48 338 2.0 6.0 0.00 0.00 0.00 29 1002.7
20240303171018 48 135 1.0 6.0 0.00 0.00 0.00 31 1002.6
20240303170017 47 135 1.0 3.0 0.00 0.00 0.00 26 1002.2
20240303165017 45 0.0 3.0 0.00 0.00 0.00 30 1002.3
20240303164018 45 203 1.0 6.0 0.00 0.00 0.00 29 1002.4
20240303163016 44 0.0 5.0 0.00 0.00 0.00 31 1002.7
20240303162018 43 0.0 2.0 0.00 0.00 0.00 31 1002.5
20240303161016 41 0.0 2.0 0.00 0.00 0.00 31 1001.9
20240303160017 40 0.0 2.0 0.00 0.00 0.00 34 1001.9
20240303155039 39 135 2.0 6.0 0.00 0.00 0.00 34 1001.5
20240303154016 38 135 1.0 5.0 0.00 0.00 0.00 36 1001.5
20240303153017 37 135 1.0 4.0 0.00 0.00 0.00 35 1001.8
20240303152017 36 135 1.0 6.0 0.00 0.00 0.00 36 1002.0
20240303151017 35 135 1.0 3.0 0.00 0.00 0.00 38 1001.7
20240303150018 34 113 2.0 9.0 0.00 0.00 0.00 37 1000.9
20240303145016 33 135 1.0 4.0 0.00 0.00 0.00 40 1000.6
20240303144016 32 135 1.0 8.0 0.00 0.00 0.00 39 1000.7
20240303143018 32 113 1.0 5.0 0.00 0.00 0.00 40 1000.8
20240303142018 32 113 1.0 5.0 0.00 0.00 0.00 42 1000.6
20240303141017 32 180 1.0 5.0 0.00 0.00 0.00 41 1000.2
20240303140016 32 135 1.0 6.0 0.00 0.00 0.00 42 1000.7
20240303135016 32 113 2.0 10.0 0.00 0.00 0.00 41 1000.7
20240303134017 32 203 1.0 5.0 0.00 0.00 0.00 41 1000.7
20240303133117 32 113 3.0 11.0 0.00 0.00 0.00 41 999.9
20240303132016 32 90 5.0 15.0 0.00 0.00 0.00 40 999.8
20240303131016 32 113 4.0 11.0 0.00 0.00 0.00 40 999.2
20240303130017 32 158 2.0 7.0 0.00 0.00 0.00 41 1000.6
20240303125018 32 113 2.0 8.0 0.00 0.00 0.00 41 1000.3
20240303124037 32 180 1.0 5.0 0.00 0.00 0.00 42 1000.6
20240303123017 32 135 2.0 7.0 0.00 0.00 0.00 41 1000.8
20240303122017 32 135 1.0 5.0 0.00 0.00 0.00 44 1000.4
20240303121017 31 135 2.0 5.0 0.00 0.00 0.00 44 999.4
20240303120016 32 135 1.0 6.0 0.00 0.00 0.00 44 999.9
20240303115017 32 180 2.0 8.0 0.00 0.00 0.00 44 999.9
20240303114037 32 158 2.0 5.0 0.00 0.00 0.00 45 1000.4
20240303113017 33 135 3.0 11.0 0.00 0.00 0.00 45 1001.0
20240303112016 33 135 1.0 5.0 0.00 0.00 0.00 46 1000.5
20240303111037 33 135 3.0 8.0 0.00 0.00 0.00 46 1000.1
20240303110043 34 135 3.0 11.0 0.00 0.00 0.00 47 999.5
20240303105017 34 135 2.0 8.0 0.00 0.00 0.00 48 999.0
20240303104016 34 135 2.0 8.0 0.00 0.00 0.00 52 998.6
20240303103016 34 135 4.0 15.0 0.00 0.00 0.00 53 998.5
20240303102016 34 135 3.0 11.0 0.00 0.00 0.00 54 998.1
20240303101017 34 113 4.0 12.0 0.00 0.00 0.00 59 998.8
20240303100017 33 90 3.0 10.0 0.00 0.00 0.00 70 998.9
20240303095016 31 203 1.0 4.0 0.00 0.00 0.00 85 998.0
20240303094016 31 158 2.0 9.0 0.00 0.00 0.00 86 998.1
20240303093016 31 113 2.0 9.0 0.00 0.00 0.00 87 998.1
20240303092016 32 90 4.0 14.0 0.00 0.00 0.00 85 998.2
20240303091017 33 113 4.0 13.0 0.00 0.00 0.00 83 998.1
20240303090017 35 113 4.0 9.0 0.00 0.00 0.00 79 998.2
20240303085016 38 135 3.0 11.0 0.00 0.00 0.00 66 998.6
20240303084016 45 135 5.0 15.0 0.00 0.00 0.00 48 999.5
20240303083016 46 113 2.0 8.0 0.00 0.00 0.00 46 998.5
20240303082016 46 158 1.0 12.0 0.00 0.00 0.00 46 997.7
20240303081036 46 135 2.0 8.0 0.00 0.00 0.00 46 997.6
20240303080016 45 113 1.0 8.0 0.00 0.00 0.00 45 997.3
20240303075016 45 0.0 1.0 0.00 0.00 0.00 45 997.4
20240303074016 46 0.0 3.0 0.00 0.00 0.00 45 997.4
20240303073036 46 90 1.0 8.0 0.00 0.00 0.00 42 998.1
20240303072017 47 180 1.0 4.0 0.00 0.00 0.00 40 998.5
20240303071056 46 135 1.0 5.0 0.00 0.00 0.00 41 998.1
20240303070036 45 90 1.0 6.0 0.00 0.00 0.00 42 997.9
20240303065016 45 0.0 2.0 0.00 0.00 0.00 46 997.9
20240303064016 45 0.0 1.0 0.00 0.00 0.00 44 998.2
20240303063016 46 0.0 1.0 0.00 0.00 0.00 41 997.7
20240303062016 47 0.0 3.0 0.00 0.00 0.00 40 997.8
20240303061016 48 0.0 3.0 0.00 0.00 0.00 39 998.0
20240303060016 48 135 1.0 7.0 0.00 0.00 0.00 39 998.1
20240303055017 47 0.0 2.0 0.00 0.00 0.00 40 998.2
20240303054016 47 0.0 4.0 0.00 0.00 0.00 39 998.4
20240303053016 47 0.0 1.0 0.00 0.00 0.00 39 998.2
20240303052016 48 0.0 1.0 0.00 0.00 0.00 37 998.2
20240303051016 49 0.0 3.0 0.00 0.00 0.00 36 998.2
20240303050017 49 0.0 3.0 0.00 0.00 0.00 36 998.3
20240303045016 49 0.0 2.0 0.00 0.00 0.00 34 998.3
20240303044058 50 135 1.0 7.0 0.00 0.00 0.00 33 998.1
20240303043017 50 0.0 2.0 0.00 0.00 0.00 32 998.2
20240303042016 50 0.0 2.0 0.00 0.00 0.00 29 998.2
20240303041016 49 0.0 1.0 0.00 0.00 0.00 29 997.6
20240303040016 50 0.0 1.0 0.00 0.00 0.00 28 998.1
20240303035016 51 0.0 0.0 0.00 0.00 0.00 27 997.7
20240303034017 51 0.0 1.0 0.00 0.00 0.00 26 997.8
20240303033015 52 0.0 1.0 0.00 0.00 0.00 25 997.8
20240303032016 52 113 1.0 6.0 0.00 0.00 0.00 25 997.7
20240303031015 51 0.0 3.0 0.00 0.00 0.00 24 996.8
20240303030016 51 0.0 3.0 0.00 0.00 0.00 24 996.0
20240303025015 52 0.0 4.0 0.00 0.00 0.00 23 995.7
20240303024036 53 135 1.0 5.0 0.00 0.00 0.00 23 995.8
20240303023036 53 113 1.0 6.0 0.00 0.00 0.00 22 995.7
20240303022055 53 135 2.0 6.0 0.00 0.00 0.00 22 995.8
20240303021037 53 135 1.0 4.0 0.00 0.00 0.00 22 995.7
20240303020016 53 158 2.0 6.0 0.00 0.00 0.00 21 995.8
20240303015016 54 180 3.0 9.0 0.00 0.00 0.00 20 995.9
20240303014019 54 180 2.0 6.0 0.00 0.00 0.00 20 995.9
20240303013016 53 135 2.0 7.0 0.00 0.00 0.00 19 995.2
20240303012018 52 203 2.0 11.0 0.00 0.00 0.00 20 994.9
20240303011015 52 0.0 0.0 0.00 0.00 0.00 19 994.9
20240303010018 54 0.0 1.0 0.00 0.00 0.00 18 995.6
20240303005018 55 0.0 2.0 0.00 0.00 0.00 17 995.6
20240303004017 56 203 1.0 5.0 0.00 0.00 0.00 16 996.4
20240303003018 56 0.0 3.0 0.00 0.00 0.00 15 996.0
20240303002017 57 0.0 3.0 0.00 0.00 0.00 15 996.1
20240303001038 58 203 1.0 6.0 0.00 0.00 0.00 14 996.2
20240303000017 58 135 1.0 6.0 0.00 0.00 0.00 13 996.2
20240302235018 59 135 3.0 9.0 0.00 0.00 0.00 13 996.4
20240302234017 59 135 2.0 9.0 0.00 0.00 0.00 13 996.6
20240302233018 60 158 2.0 11.0 0.00 0.00 0.00 13 997.1
20240302232017 61 113 2.0 6.0 0.00 0.00 0.00 13 997.4
20240302231018 61 180 4.0 13.0 0.00 0.00 0.00 13 997.5
20240302230017 62 135 3.0 8.0 0.00 0.00 0.00 12 997.7
20240302225017 63 203 2.0 5.0 0.00 0.00 0.00 12 998.1
20240302224017 63 113 1.0 8.0 0.00 0.00 0.00 12 998.2
20240302223039 64 338 4.0 9.0 0.00 0.00 0.00 12 998.3
20240302222017 64 135 2.0 5.0 0.00 0.00 0.00 13 998.1
20240302221017 65 180 2.0 10.0 0.00 0.00 0.00 13 998.6
20240302220017 66 135 2.0 6.0 0.00 0.00 0.00 12 998.5
20240302215017 66 180 1.0 7.0 0.00 0.00 0.00 12 999.3
20240302214017 66 135 2.0 9.0 0.00 0.00 0.00 11 999.5
20240302213017 66 135 1.0 4.0 0.00 0.00 0.00 10 999.0
20240302212019 66 135 2.0 7.0 0.00 0.00 0.00 10 999.6
20240302211017 66 113 4.0 12.0 0.00 0.00 0.00 10 999.6
20240302210017 66 158 3.0 12.0 0.00 0.00 0.00 9 999.9
20240302205017 66 158 3.0 11.0 0.00 0.00 0.00 10 999.9
20240302204058 67 135 2.0 6.0 0.00 0.00 0.00 11 1000.2
20240302203018 66 113 2.0 8.0 0.00 0.00 0.00 11 1000.3
20240302202017 67 135 3.0 8.0 0.00 0.00 0.00 11 1001.4
20240302201017 67 180 3.0 8.0 0.00 0.00 0.00 11 1001.6
20240302200017 67 158 1.0 5.0 0.00 0.00 0.00 11 1001.9
20240302195017 66 113 2.0 8.0 0.00 0.00 0.00 11 1001.9
20240302194017 66 135 2.0 5.0 0.00 0.00 0.00 10 1002.5
20240302193017 66 135 3.0 17.0 0.00 0.00 0.00 11 1002.9
20240302192017 66 135 2.0 6.0 0.00 0.00 0.00 12 1003.6
20240302191018 65 135 2.0 8.0 0.00 0.00 0.00 11 1004.0
20240302190017 64 113 3.0 13.0 0.00 0.00 0.00 11 1003.8
20240302185018 64 113 2.0 6.0 0.00 0.00 0.00 13 1004.2
20240302184017 65 203 1.0 3.0 0.00 0.00 0.00 14 1004.5
20240302183018 64 180 1.0 4.0 0.00 0.00 0.00 13 1004.9
20240302182017 63 0.0 3.0 0.00 0.00 0.00 15 1004.6
20240302181017 63 180 1.0 4.0 0.00 0.00 0.00 15 1004.8